星链-30959 (STARLINK-30959 )

导读

STARLINK-30959是美国SpaceX公司星链星座的卫星,于2023年11月28日发射入轨,属于星链低轨互联网星座的组网卫星,旨在为全球提供高速低延迟宽带互联网服务,星链系统通过批量发射卫星构建巨型星座,该卫星是其持续扩张组网中的一员,目前已在轨道运行参与星座服务运营。

基本信息
目录编号:
58442
目录名称:
STARLINK-30959
国际标识:
2023-183F
轨道中心:
EARTH
卫星名称:
星链-30959
卫星全名:
星链-30959 (STARLINK-30959 )
卫星状态:
在轨 (已飞行933 天)
发射日期:
2023-11-28 UTC
国别 :
美国 (US)
星等 :
--
轨道信息
数据来源 国际轨道数据 AOE轨道数据
星历时间 2026-06-17T02:56:25+0800
1天前
查看轨道信息
2026-06-17T07:00:00+0800
1天前
查看轨道信息
半长轴 6861.195km 6861.163km
偏心率 0.0001485 0.0001425
轨道倾角 43.002° 42.999°
近地点辐角 274.601° 281.099°
升交点赤经 201.674° 200.725°
平近点角 85.468° 290.298°
近地点 482.039km 482.048km
远地点 484.077km 484.004km
周期 94.267分钟 94.266分钟
每日圈数 15.275773 15.275878
详细信息
固有亮度:
5
最大亮度:
0.3
卫星平台:
Starlink v2.0 mini
覆盖范围:
全球
运营商:
太空探索技术公司
运营商所在国:
美国
制造商(研发单位):
太空探索技术公司
制造商所在国:
美国
使用方式:
暂无
卫星简介
星链(Starlink)计划是由太空探索技术公司(SpaceX)提出的一个巨型低轨卫星互联网星座项目,计划在2019年至2024年间在太空搭建由约1.2万颗卫星组成的“星链”网络,其中1584颗将部署在地球上空550千米处的近地轨道,并从2020年开始工作。该卫星仍在工作。
2D轨道图
3D轨道图
轨道高度分析图
轨道倾角分析图
轨道综合分析图
查看轨道综合分析图